Temp
23 23 23 22 22 21 21 21 21 20 20 19 19 20 20 20 20 20 20 20 20 20 19 19 19 18 19 19 20 19 19 18
22 21 22 22 21 21 21 21 21 20 19 19 19 20 20 20 20 20 20 20 19 19 19 19 19 18 19 19 20 19 19 17
22 20 20 20 21 20 20 20 20 20 20 19 19 19 19 19 20 20 20 19 19 19 19 18 18 18 18 18 19 19 19 19
23 22 21 21 21 20 20 20 20 20 19 19 19 19 19 19 19 19 19 19 19 18 18 18 18 18 18 18 18 18 18 17
25 24 23 22 22 21 19 19 19 19 19 19 19 19 20 20 19 19 19 19 18 18 18 18 17 17 18 18 18 17 16 16
26 24 23 22 23 22 21 20 20 19 19 19 19 19 20 19 19 19 18 18 18 18 18 17 16 16 17 17 18 17 17 16
27 26 24 23 23 24 24 22 20 20 20 20 20 20 19 19 19 18 18 18 18 18 17 17 16 15 16 16 17 17 16 15
28 26 24 23 22 23 24 22 21 21 20 20 20 19 19 19 19 18 18 18 18 18 17 16 16 15 15 15 16 16 16 15
28 26 25 23 22 22 23 23 21 21 20 20 20 20 19 19 18 18 18 18 18 17 17 16 16 15 15 15 15 16 15 15
28 27 25 24 23 22 22 23 23 20 20 19 19 19 19 19 19 18 18 17 17 17 16 16 15 15 15 14 15 15 15 15
30 27 24 24 22 22 22 22 22 22 20 19 19 19 18 19 18 18 18 17 16 16 16 16 15 14 14 14 14 15 15 15
30 28 25 23 22 22 22 21 21 21 21 20 19 18 17 18 18 18 18 17 16 16 15 15 15 15 14 14 14 14 15 16
28 28 26 24 23 22 22 22 21 21 20 20 18 17 17 17 17 17 18 17 16 16 14 14 14 14 14 13 13 14 14 16
27 27 26 25 23 22 22 22 21 20 20 20 19 17 17 16 16 17 17 16 15 14 14 13 13 13 14 13 13 13 14 15
26 26 26 26 25 24 23 20 18 18 18 19 19 19 18 17 16 17 17 16 15 14 13 13 13 13 13 14 13 13 13 15
24 24 24 25 25 24 21 18 17 17 17 17 18 18 18 17 17 16 15 15 14 14 14 13 13 13 13 13 13 14 13 13
24 23 23 23 24 24 20 18 19 18 16 16 17 18 17 17 16 15 14 14 14 14 13 13 12 13 13 12 13 13 13 14
23 23 23 23 23 23 21 18 18 18 17 16 16 17 17 17 16 16 14 14 14 13 13 12 12 12 13 13 13 13 13 14
22 22 21 22 22 22 22 19 17 18 19 18 17 16 16 16 15 14 14 14 14 13 13 12 12 12 12 12 12 13 13 13
18 18 18 20 19 21 21 20 17 18 18 20 17 16 15 15 14 14 14 13 13 13 12 12 12 11 11 12 12 12 13 14
Height
746 749 752 757 761 764 767 769 773 776 779 783 786 790 794 798 799 803 805 808 812 813 817 818 820 824 826 828 829 833 832 831
746 750 753 756 760 764 766 768 772 775 779 782 786 790 793 797 799 802 804 808 811 813 816 818 820 823 827 827 829 832 832 829
746 750 753 756 759 763 766 767 770 773 777 780 784 788 792 795 798 801 803 806 809 812 815 817 819 822 825 826 827 830 833 833
745 748 751 756 759 761 764 766 768 770 774 778 782 785 789 792 795 799 801 805 808 811 813 815 818 820 822 824 826 828 831 836
741 745 749 753 756 758 762 764 766 768 771 775 779 783 787 790 793 796 798 802 805 807 810 813 815 817 819 822 824 828 832 833
737 740 745 749 753 755 758 760 764 767 768 772 776 780 783 787 790 793 796 798 802 804 807 811 814 815 817 820 823 826 829 832
726 733 739 744 749 752 755 754 758 763 766 768 772 776 779 783 786 790 793 796 798 801 804 807 811 813 814 817 820 824 827 828
717 723 730 738 744 748 751 753 754 760 763 765 769 771 774 777 782 787 790 793 795 797 800 803 808 810 813 816 819 822 825 826
713 718 724 731 739 745 747 750 750 754 758 762 766 769 771 773 777 783 787 791 793 794 797 801 804 808 811 814 816 819 822 825
710 715 720 725 733 740 744 746 749 750 754 757 762 766 768 771 773 777 783 787 790 791 793 797 800 803 808 810 813 817 819 824
706 710 713 719 729 737 740 742 744 747 750 752 755 762 764 767 769 773 777 782 786 789 791 793 797 801 804 808 810 813 817 821
701 705 710 714 721 730 735 738 741 744 746 749 751 756 760 762 765 768 772 776 781 786 789 792 795 798 801 804 805 811 815 818
700 705 709 713 719 725 730 731 735 738 742 745 747 752 755 758 761 764 768 771 775 781 786 789 792 795 799 801 804 809 812 816
699 703 708 713 716 719 724 727 729 733 736 740 743 746 750 753 755 758 762 766 772 776 781 784 788 790 794 800 802 807 809 813
701 704 707 709 712 715 719 721 725 728 730 736 738 741 744 749 751 754 757 761 766 771 775 778 782 786 789 792 797 800 806 810
700 704 705 705 706 708 709 713 719 721 725 730 735 737 740 744 746 749 752 756 760 765 769 774 778 781 786 787 788 789 793 807
700 704 705 703 703 703 704 708 713 717 721 724 729 732 736 739 741 743 747 751 755 759 763 768 772 775 779 781 785 790 792 797
699 703 702 700 700 700 699 703 708 713 715 718 722 726 729 733 735 738 743 746 750 754 758 763 766 771 775 778 779 781 789 793
697 699 699 698 697 697 697 698 703 708 711 711 714 718 723 726 729 732 738 742 745 750 754 758 762 766 770 774 777 780 784 790
701 701 700 697 694 693 692 695 699 702 705 704 706 710 716 721 725 728 733 738 741 746 750 754 757 762 766 770 774 777 781 789
Wind_Speed
16 18 18 17 16 15 14 14 13 13 13 15 16 15 16 18 20 19 17 16 13 13 10 9 15 16 14 10 9 11 6 11
13 17 19 19 18 17 16 15 14 13 13 15 14 14 16 18 18 18 18 16 15 14 7 12 15 12 15 12 10 11 9 12
16 16 16 17 17 18 18 17 15 15 14 15 15 16 16 18 18 19 18 17 16 12 9 14 16 21 16 15 13 14 9 14
20 19 18 17 16 15 20 19 19 18 16 15 17 17 16 16 17 21 19 20 17 13 13 13 17 17 18 17 20 18 10 12
22 22 22 22 18 18 17 17 17 17 17 18 15 16 19 18 18 21 22 21 17 16 15 15 17 19 21 23 23 23 5 14
24 25 24 24 20 22 21 23 19 18 20 21 19 20 19 18 17 20 23 22 23 17 19 17 15 21 21 26 25 25 14 10
33 30 29 26 25 22 21 25 22 20 20 23 24 20 20 19 18 18 20 21 22 23 21 19 19 20 20 25 30 27 12 14
36 35 33 28 26 23 24 21 23 22 22 22 23 23 23 21 20 19 19 21 22 23 24 21 21 20 19 22 28 25 14 14
35 35 33 29 26 28 20 22 20 24 23 26 23 26 21 21 21 19 21 18 20 22 21 19 20 21 20 23 26 22 18 20
23 28 34 32 26 24 26 20 22 19 24 29 26 25 24 23 20 21 22 19 19 19 20 23 22 25 25 27 27 24 23 22
21 31 30 30 27 24 25 26 22 23 21 21 27 28 28 24 22 20 18 21 20 21 19 24 26 25 26 26 28 27 20 25
20 22 31 29 25 28 22 25 27 23 23 22 23 26 28 31 25 17 21 19 21 20 22 22 23 27 24 26 30 29 24 26
2 7 19 27 24 23 25 24 25 26 24 23 23 26 28 28 27 22 20 21 23 23 20 21 23 25 18 18 21 28 27 25
5 8 10 15 22 25 24 26 24 24 24 22 26 29 27 26 26 28 24 25 23 23 26 20 20 28 14 17 5 9 21 17
8 11 15 18 23 24 23 16 17 22 29 29 26 28 29 27 27 27 27 27 27 26 27 26 18 24 24 8 4 3 11 18
1 8 12 14 19 23 26 21 17 21 23 27 24 25 26 27 25 29 27 28 28 27 27 27 24 20 22 15 8 10 6 4
3 5 12 14 15 25 26 22 21 20 22 24 34 29 30 28 27 28 26 28 28 28 26 28 30 25 23 18 14 14 13 9
1 8 15 12 15 16 24 25 23 20 23 27 28 26 31 29 29 29 27 29 29 27 27 31 31 28 25 24 22 18 17 13
12 13 17 20 16 19 19 22 25 25 26 27 26 26 27 29 30 28 29 29 27 28 31 32 33 33 31 24 23 20 23 22
23 24 26 20 28 21 23 17 22 26 29 25 29 28 26 26 29 29 29 28 28 30 32 32 33 34 29 30 22 27 31 21
Wind_Direction
167 169 169 173 179 181 181 180 186 189 193 195 204 206 207 207 206 204 201 200 196 190 184 208 201 187 191 200 231 206 227 153
171 173 175 180 185 190 190 188 189 192 193 197 207 207 212 212 211 207 208 210 207 195 211 193 197 182 198 199 225 230 227 160
169 171 179 185 191 196 196 195 194 194 196 203 205 210 216 214 213 211 211 213 211 209 208 189 204 193 210 198 197 225 226 192
177 175 180 183 182 203 203 202 200 200 200 207 210 207 207 213 214 215 216 213 207 214 206 205 202 213 200 201 200 202 230 214
185 183 184 185 188 191 194 197 201 204 199 196 215 204 206 211 211 218 213 214 208 207 209 202 201 215 213 206 208 215 193 171
190 191 191 193 196 194 195 190 195 203 207 204 201 206 210 211 210 212 214 214 215 214 212 193 201 215 212 205 206 212 213 218
186 190 191 195 198 203 204 191 189 202 205 209 205 203 202 206 210 209 212 206 210 207 203 200 204 214 202 203 201 208 226 257
186 187 191 191 199 205 206 194 198 194 201 208 207 203 206 208 209 207 206 209 205 207 201 199 199 209 205 204 205 206 203 190
183 185 183 185 199 210 213 201 206 196 207 204 211 208 201 196 200 203 212 213 208 207 203 197 194 211 212 210 207 208 202 190
190 178 185 188 196 209 214 210 206 201 206 209 212 215 207 205 208 218 218 216 207 208 201 199 198 208 212 214 209 205 203 198
213 186 185 196 203 211 213 212 213 208 200 203 209 214 211 207 201 209 218 217 211 211 210 210 196 202 206 213 210 208 199 191
206 190 182 190 196 203 218 209 209 214 214 206 200 211 210 209 207 207 211 209 211 205 204 211 200 201 200 204 204 208 198 181
50 172 185 185 185 192 212 214 203 208 208 214 211 212 212 210 212 205 207 205 201 204 203 200 196 210 197 192 201 208 197 199
273 267 244 199 197 203 213 218 210 207 205 215 217 208 209 207 204 205 209 209 205 207 208 190 202 199 189 179 172 198 201 195
254 258 261 232 223 213 209 197 194 205 212 220 218 208 202 210 207 210 212 213 213 209 203 199 187 194 193 172 148 177 166 209
305 289 282 267 229 216 193 183 197 211 211 212 225 209 211 211 208 211 210 214 213 214 211 210 192 188 198 190 165 152 157 163
142 265 274 275 270 216 199 198 213 211 205 207 219 222 217 210 208 203 203 207 216 214 210 206 199 190 189 185 166 162 153 160
290 300 294 272 269 257 204 203 205 206 205 203 207 213 208 209 209 212 213 209 211 215 214 202 197 193 190 188 185 173 172 161
13 339 318 309 268 254 237 212 203 211 224 204 197 197 202 203 203 205 203 211 211 212 206 204 200 196 199 192 189 180 170 171
355 340 322 299 306 268 234 238 206 219 234 213 185 187 198 204 199 201 207 206 207 208 204 204 203 204 203 201 193 183 180 190